N1LID Weather Reports


Display with metric or nautical units.
time (UTC)temp
F
wind
direction
speed
MPH
gust
MPH
rain 1hr
in
rain 24hr
in
rain mn
in
humidity
%
barometer
mb
20210615100130 66 360 0.0 0.0 0.00 0.03 0.03 97 1006.0
20210615094632 66 360 0.0 0.0 0.00 0.03 0.03 97 1006.2
20210615093343 67 360 0.0 0.0 0.00 0.03 0.03 97 1006.1
20210615091719 67 360 0.0 0.0 0.00 0.03 0.03 97 1006.2
20210615090241 67 360 0.0 0.0 0.00 0.03 0.03 97 1006.2
20210615084708 67 360 0.0 0.0 0.00 0.03 0.03 97 1005.9
20210615083123 67 360 0.0 0.0 0.01 0.03 0.03 96 1005.6
20210615081630 67 360 0.0 0.0 0.01 0.03 0.03 96 1005.5
20210615080254 67 360 0.0 0.0 0.02 0.03 0.03 95 1005.3
20210615074607 67 360 0.0 0.0 0.03 0.03 0.03 94 1005.4
20210615073115 68 360 0.0 0.0 0.02 0.02 0.02 94 1005.2
20210615071626 68 360 0.0 0.0 0.02 0.02 0.02 94 1005.6
20210615070115 69 355 0.0 0.0 0.00 0.00 0.00 92 1006.0
20210615064622 69 351 0.0 0.0 0.00 0.00 0.00 91 1005.6
20210615063143 69 344 0.0 0.0 0.00 0.00 0.00 91 1005.8
20210615061606 69 119 0.0 0.0 0.00 0.00 0.00 89 1005.9
20210615060047 69 188 0.0 0.0 0.00 0.00 0.00 89 1005.9
20210615054634 69 65 0.0 5.0 0.00 0.00 0.00 88 1006.0
20210615053042 70 225 0.0 2.0 0.00 0.00 0.00 86 1005.9
20210615051608 71 78 1.0 8.0 0.00 0.00 0.00 83 1006.4
20210615050051 73 67 0.0 7.0 0.00 0.00 0.00 81 1006.5
20210615044614 73 108 0.0 5.0 0.00 0.00 0.00 87 1006.3
20210615043120 73 267 0.0 1.0 0.00 0.00 0.00 92 1006.1
20210615041522 74 235 0.0 0.0 0.00 0.00 0.00 92 1005.0
20210615040023 74 235 0.0 0.0 0.00 0.00 0.00 91 1005.2
20210615034518 74 236 0.0 5.0 0.00 0.00 0.00 91 1005.4
20210615033021 75 215 0.0 0.0 0.00 0.00 0.00 90 1005.0
20210615031523 75 229 2.0 8.0 0.00 0.00 0.00 90 1004.8
20210615030028 75 221 2.0 10.0 0.00 0.00 0.00 89 1004.9
20210615024517 75 198 2.0 12.0 0.00 0.00 0.00 88 1004.8
20210615023021 75 227 0.0 12.0 0.00 0.00 0.00 87 1005.1
20210615021542 76 252 2.0 12.0 0.00 0.00 0.00 86 1005.1
20210615020016 76 149 4.0 10.0 0.00 0.00 0.00 86 1005.0
20210615014512 76 202 3.0 11.0 0.00 0.00 0.00 86 1005.1
20210615013041 76 233 2.0 8.0 0.00 0.00 0.00 85 1005.2
20210615011526 76 230 3.0 9.0 0.00 0.00 0.00 85 1005.6
20210615010015 76 227 2.0 8.0 0.00 0.00 0.00 84 1005.6
20210615004516 76 221 0.0 7.0 0.00 0.00 0.00 84 1005.6
20210615003016 77 184 0.0 0.0 0.00 0.00 0.00 85 1005.5
20210615001510 78 183 0.0 0.0 0.00 0.00 0.00 85 1005.6
20210615000009 78 173 0.0 0.0 0.00 0.00 0.00 83 1005.5
20210614234527 79 176 0.0 0.0 0.00 0.00 0.00 82 1005.4
20210614233009 80 180 0.0 0.0 0.00 0.00 0.00 80 1005.3
20210614231509 81 246 0.0 4.0 0.00 0.00 0.00 80 1005.2
20210614230011 81 67 0.0 0.0 0.00 0.00 0.00 78 1005.0
20210614224508 82 251 1.0 5.0 0.00 0.00 0.00 77 1005.0
20210614223006 82 241 2.0 9.0 0.00 0.00 0.00 75 1005.1
20210614221506 83 223 1.0 6.0 0.00 0.00 0.00 73 1005.3
20210614220005 83 238 1.0 8.0 0.00 0.00 0.00 70 1005.4
20210614214812 83 223 2.0 8.0 0.00 0.00 0.00 68 1005.5
20210614213143 83 221 0.0 8.0 0.00 0.00 0.00 66 1005.6
20210614211635 83 222 0.0 0.0 0.00 0.00 0.00 68 1005.7
20210614210226 83 222 0.0 1.0 0.00 0.00 0.00 66 1005.7
20210614204732 83 155 1.0 7.0 0.00 0.00 0.00 67 1005.8
20210614203143 83 200 0.0 3.0 0.00 0.00 0.00 68 1005.9
20210614201636 83 229 0.0 9.0 0.00 0.00 0.00 68 1006.0
20210614200120 84 216 0.0 4.0 0.00 0.00 0.00 65 1006.3
20210614194701 84 246 2.0 9.0 0.00 0.00 0.00 66 1006.3
20210614193130 85 233 2.0 10.0 0.00 0.00 0.00 66 1006.4
20210614191626 85 215 1.0 8.0 0.00 0.00 0.00 65 1006.6
20210614190121 86 244 2.0 8.0 0.00 0.00 0.00 64 1006.9
20210614184618 85 240 2.0 11.0 0.00 0.00 0.00 66 1006.9
20210614183101 85 244 0.0 8.0 0.00 0.00 0.00 66 1007.0
20210614181611 85 238 1.0 9.0 0.00 0.00 0.00 68 1007.2
20210614180108 85 207 0.0 0.0 0.00 0.00 0.00 67 1007.4
20210614174550 84 259 0.0 1.0 0.00 0.00 0.00 68 1007.7
20210614173052 84 242 0.0 10.0 0.00 0.00 0.00 70 1007.8
20210614171542 84 241 3.0 12.0 0.00 0.00 0.00 68 1008.0
20210614170049 84 233 3.0 12.0 0.00 0.00 0.00 69 1008.1
20210614164557 83 252 0.0 9.0 0.00 0.00 0.00 71 1008.2
20210614163049 82 240 0.0 8.0 0.00 0.00 0.00 72 1008.4
20210614161524 82 224 0.0 9.0 0.00 0.00 0.00 74 1008.4
20210614160023 81 234 2.0 8.0 0.00 0.00 0.00 74 1008.5
20210614154546 81 244 4.0 10.0 0.00 0.00 0.00 73 1008.6
20210614153032 81 227 4.0 12.0 0.00 0.00 0.00 74 1008.7
20210614151530 79 205 2.0 8.0 0.00 0.00 0.00 75 1008.6
20210614150045 78 269 0.0 3.0 0.00 0.00 0.00 80 1008.6
20210614144515 77 238 0.0 6.0 0.00 0.00 0.00 81 1008.7
20210614143002 76 220 0.0 8.0 0.00 0.00 0.00 80 1008.7
20210614141620 75 269 5.0 12.0 0.00 0.00 0.00 79 1008.7
20210614140144 75 232 2.0 9.0 0.00 0.00 0.00 82 1008.6
20210614134730 74 234 0.0 10.0 0.00 0.00 0.00 82 1008.5
20210614133135 73 237 1.0 8.0 0.00 0.00 0.00 83 1008.8
20210614131653 73 246 6.0 11.0 0.00 0.00 0.00 84 1008.8
20210614130140 72 215 2.0 10.0 0.00 0.00 0.00 85 1009.1
20210614124619 71 235 1.0 9.0 0.00 0.00 0.00 86 1009.2
20210614123106 70 232 4.0 8.0 0.00 0.00 0.00 86 1009.3
20210614121606 70 239 3.0 10.0 0.00 0.00 0.00 88 1009.1
20210614120053 69 247 1.0 5.0 0.00 0.00 0.00 89 1009.0
20210614114549 68 239 0.0 7.0 0.00 0.00 0.00 90 1009.0
20210614113108 68 242 0.0 5.0 0.00 0.00 0.00 90 1009.1
20210614111540 67 221 0.0 7.0 0.00 0.00 0.00 92 1009.1
20210614110040 66 238 0.0 4.0 0.00 0.00 0.00 93 1009.0
20210614104621 64 227 0.0 4.0 0.00 0.00 0.00 95 1009.1
20210614103055 64 227 0.0 0.0 0.00 0.00 0.00 95 1009.1